Location: Caracas
(10.5033°N, 66.8422°W)
Time: 04:48:46
(UTC-04:00)

ISS - Visible Passes

Search period start: 21 June 2018 00:00
Search period end: 01 July 2018 00:00
Orbit: 402 x 406 km, 51.6° (Epoch: 21 June)

Date Brightness Start Highest point End Pass type
(mag) Time Alt. Az. Time Alt. Az. Time Alt. Az.
24 Jun -3.8 05:38:11 10° SW 05:41:27 89° SE 05:44:43 10° NE visible
25 Jun -2.2 04:47:59 22° SSE 04:49:11 29° SE 04:52:04 10° ENE visible
26 Jun -2.2 05:30:55 12° W 05:33:10 22° NW 05:35:46 10° N visible
27 Jun -3.6 04:41:05 58° NNW 04:41:05 58° NNW 04:44:02 10° NNE visible
28 Jun -0.5 03:51:09 13° NE 03:51:09 13° NE 03:51:36 10° NE visible
29 Jun -1.3 04:33:49 13° NNW 04:33:49 13° NNW 04:34:37 10° N visible
